Weather History for KAIA - March, 2012

Change the Weather History Date:

Friday, March 30, 2012

  Actual Average Record
Temperature  
Mean Temperature 57 °F 41 °F  
Max Temperature 75 °F 55 °F 80 °F (2010)
Min Temperature 39 °F 26 °F -4 °F (1899)
Degree Days  
Heating Degree Days 8 24  
Month to date heating degree days 587 858  
Since 1 July heating degree days 5765 6262  
Cooling Degree Days 0 0  
Month to date cooling degree days 0 0  
Year to date cooling degree days 0 0  
Growing Degree Days 8 (Base 50)    
Moisture  
Dew Point 28 °F    
Average Humidity 36    
Maximum Humidity 58    
Minimum Humidity 14    
Precipitation  
Precipitation 0.00 in 0.06 in 0.56 in (1936)
Month to date precipitation 0.00 0.79  
Year to date precipitation 0.86 1.35  
Sea Level Pressure  
Sea Level Pressure 29.72 in    
Wind  
Wind Speed 12 mph (WSW)    
Max Wind Speed 30 mph    
Max Gust Speed 38 mph    
Visibility 10 miles    
Events      
T = Trace of Precipitation, MM = Missing Value Source: NWS Daily Summary

Daily Weather History Graph

Daily Weather History Graph

Search for Another Location

Airport or City:

Trip Planner

Search our weather history database for the weather conditions in past years. The results will help you decide how hot, cold, wet, or windy it might be!

Date:

Astronomy

Mar. 30, 2012 Rise Set
Actual Time 6:36 AM MDT 7:15 PM MDT
Civil Twilight 6:08 AM MDT 7:43 PM MDT
Nautical Twilight 5:34 AM MDT 8:16 PM MDT
Astronomical Twilight 5:00 AM MDT 8:51 PM MDT
Moon 11:39 AM MDT (3/30) 1:58 AM MDT (3/30)
Length of Visible Light 13h 35m
Length of Day
12h 38m
Waxing Crescent, 49% of the Moon is Illuminated
Mar 30
Waxing Crescent
Mar 30
First Quarter
Apr 6
Full
Apr 13
Last Quarter
Apr 21
New

Hourly Weather History & Observations

Time (MDT) Temp. Windchill Dew Point Humidity Pressure Visibility Wind Dir Wind Speed Gust Speed Precip Events Conditions
12:53 AM 41.0 °F 36.4 °F 23.0 °F 49% 29.80 in 10.0 mi WSW 6.9 mph - N/A   Clear
1:53 AM 45.0 °F 41.2 °F 23.0 °F 42% 29.77 in 10.0 mi SSW 6.9 mph - N/A   Clear
2:30 AM 57.2 °F - 30.2 °F 36% 29.80 in 10.0 mi WNW 26.5 mph 32.2 mph N/A   Clear
2:53 AM 59.0 °F - 30.0 °F 33% 29.70 in 10.0 mi West 25.3 mph 35.7 mph N/A   Scattered Clouds
3:53 AM 55.0 °F - 28.9 °F 37% 29.70 in 10.0 mi WSW 15.0 mph - N/A   Clear
4:53 AM 48.0 °F - 30.0 °F 50% 29.73 in 10.0 mi West 11.5 mph - N/A   Clear
5:53 AM 44.1 °F 38.1 °F 30.0 °F 58% 29.76 in 10.0 mi SW 11.5 mph - N/A   Clear
6:53 AM 43.0 °F 39.5 °F 28.0 °F 56% 29.80 in 10.0 mi WSW 5.8 mph - N/A   Clear
7:53 AM 52.0 °F - 30.9 °F 45% 29.80 in 10.0 mi SW 9.2 mph - N/A   Clear
8:53 AM 60.1 °F - 30.0 °F 32% 29.76 in 10.0 mi WSW 13.8 mph - N/A   Clear
9:53 AM 64.0 °F - 30.0 °F 28% 29.76 in 10.0 mi West 19.6 mph - N/A   Clear
10:53 AM 66.0 °F - 28.0 °F 24% 29.76 in 10.0 mi WNW 20.7 mph 31.1 mph N/A   Clear
11:53 AM 69.8 °F - 28.4 °F 21% 29.80 in 10.0 mi WNW 16.1 mph 28.8 mph N/A   Clear
12:53 PM 71.1 °F - 26.1 °F 19% 29.72 in 10.0 mi West 13.8 mph 31.1 mph N/A   Clear
1:53 PM 73.0 °F - 26.1 °F 17% 29.69 in 10.0 mi West 18.4 mph - N/A   Clear
2:53 PM 73.0 °F - 27.0 °F 18% 29.64 in 10.0 mi WNW 10.4 mph 23.0 mph N/A   Clear
3:53 PM 73.0 °F - 25.0 °F 17% 29.63 in 10.0 mi West 17.3 mph 20.7 mph N/A   Clear
4:53 PM 75.0 °F - 23.0 °F 14% 29.63 in 10.0 mi Calm Calm - N/A   Clear
5:53 PM 71.1 °F - 26.1 °F 19% 29.65 in 10.0 mi West 9.2 mph - N/A   Clear
6:53 PM 62.1 °F - 28.0 °F 28% 29.70 in 10.0 mi West 8.1 mph - N/A   Clear
7:53 PM 55.0 °F - 28.9 °F 37% 29.70 in 10.0 mi West 9.2 mph - N/A   Clear
8:53 PM 52.0 °F - 28.0 °F 40% 29.70 in 10.0 mi WSW 6.9 mph - N/A   Clear
9:53 PM 54.0 °F - 30.0 °F 40% 29.69 in 10.0 mi Calm Calm - N/A   Clear
10:53 PM 53.1 °F - 30.0 °F 41% 29.69 in 10.0 mi SW 6.9 mph - N/A   Clear
11:53 PM 52.0 °F - 28.9 °F 41% 29.70 in 10.0 mi SW 10.4 mph - N/A   Clear